Change the Weather History Date:

Friday, September 21, 2012

  Actual Average Record
Temperature  
Mean Temperature 54 °F -  
Max Temperature 66 °F 74 °F 93 °F (2007)
Min Temperature 42 °F 48 °F 34 °F (1991)
Degree Days  
Heating Degree Days 11    
Growing Degree Days 4 (Base 50)    
Moisture  
Dew Point 44 °F    
Average Humidity 72    
Maximum Humidity 95    
Minimum Humidity 38    
Precipitation  
Precipitation 0.02 in - - ()
Sea Level Pressure  
Sea Level Pressure 29.89 in    
Wind  
Wind Speed 4 mph (NE)    
Max Wind Speed 14 mph    
Max Gust Speed 17 mph    
Visibility 10 miles    
Events Fog , Rain    
Averages and records for this station are not official NWS values.
T = Trace of Precipitation, MM = Missing Value Source: NWS Daily Summary

Daily Weather History Graph

Daily Weather History Graph

Search for Another Location

Airport or City:

Trip Planner

Search our weather history database for the weather conditions in past years. The results will help you decide how hot, cold, wet, or windy it might be!

Date:

Astronomy

Sep. 21, 2012 Rise Set
Actual Time 6:38 AM CDT 6:49 PM CDT
Civil Twilight 6:10 AM CDT 7:16 PM CDT
Nautical Twilight 5:38 AM CDT 7:49 PM CDT
Astronomical Twilight 5:05 AM CDT 8:21 PM CDT
Moon 1:02 PM CDT (9/21) 10:46 PM CDT (9/21)
Length of Visible Light 13h 05m
Length of Day
12h 11m
Waxing Crescent, 37% of the Moon is Illuminated
Sep 21
Waxing Crescent
Sep 22
First Quarter
Sep 29
Full
Oct 8
Last Quarter
Oct 15
New

Hourly Weather History & Observations

Time (CDT) Temp. Dew Point Humidity Pressure Visibility Wind Dir Wind Speed Gust Speed Precip Events Conditions
12:15 AM 47.8 °F 39.4 °F 72% 29.96 in 10.0 mi Calm Calm - N/A   Clear
12:35 AM 49.3 °F 39.2 °F 68% 29.96 in 10.0 mi West 6.9 mph - N/A   Clear
12:55 AM 48.6 °F 39.2 °F 70% 29.96 in 10.0 mi West 5.8 mph - N/A   Clear
1:15 AM 48.2 °F 38.8 °F 70% 29.96 in 10.0 mi SW 3.5 mph - N/A   Clear
1:35 AM 47.1 °F 39.0 °F 73% 29.96 in 10.0 mi West 4.6 mph - N/A   Clear
1:55 AM 47.5 °F 38.5 °F 71% 29.96 in 10.0 mi Calm Calm - N/A   Clear
2:15 AM 44.8 °F 38.3 °F 78% 29.96 in 10.0 mi Calm Calm - N/A   Clear
2:35 AM 43.7 °F 38.5 °F 82% 29.96 in 10.0 mi Calm Calm - N/A   Clear
2:55 AM 45.0 °F 39.9 °F 82% 29.96 in 10.0 mi Calm Calm - N/A   Clear
3:15 AM 45.5 °F 41.0 °F 84% 29.96 in 10.0 mi Calm Calm - N/A   Clear
3:35 AM 45.5 °F 41.9 °F 87% 29.96 in 10.0 mi Calm Calm - N/A   Clear
3:55 AM 44.1 °F 40.8 °F 88% 29.96 in 10.0 mi Calm Calm - N/A   Clear
4:15 AM 45.7 °F 41.5 °F 85% 29.95 in 10.0 mi Calm Calm - N/A   Clear
4:35 AM 46.4 °F 42.8 °F 87% 29.95 in 10.0 mi Calm Calm - N/A   Clear
4:55 AM 45.9 °F 42.8 °F 89% 29.95 in 10.0 mi Calm Calm - N/A   Clear
5:15 AM 44.8 °F 41.9 °F 90% 29.95 in 10.0 mi Calm Calm - N/A   Clear
5:35 AM 44.8 °F 41.5 °F 88% 29.94 in 10.0 mi Calm Calm - N/A   Clear
5:55 AM 44.4 °F 40.6 °F 87% 29.95 in 10.0 mi Calm Calm - N/A   Clear
6:15 AM 43.7 °F 40.5 °F 88% 29.95 in 10.0 mi Calm Calm - N/A   Clear
6:35 AM 43.7 °F 41.0 °F 90% 29.94 in 10.0 mi Calm Calm - N/A   Clear
6:55 AM 42.4 °F 39.4 °F 89% 29.95 in 10.0 mi Calm Calm - N/A   Clear
7:15 AM 43.3 °F 40.1 °F 88% 29.95 in 10.0 mi Calm Calm - N/A   Clear
7:35 AM 45.1 °F 42.1 °F 89% 29.94 in 10.0 mi Calm Calm - N/A   Clear
7:55 AM 49.3 °F 42.6 °F 78% 29.94 in 10.0 mi South 3.5 mph - N/A   Clear
8:15 AM 50.2 °F 43.5 °F 78% 29.94 in 10.0 mi South 4.6 mph - N/A   Clear
8:35 AM 51.4 °F 43.5 °F 74% 29.95 in 10.0 mi South 4.6 mph - N/A   Mostly Cloudy
8:55 AM 52.9 °F 44.4 °F 73% 29.95 in 10.0 mi South 5.8 mph - N/A   Overcast
9:15 AM 54.9 °F 45.0 °F 69% 29.96 in 10.0 mi South 6.9 mph - N/A   Overcast
9:35 AM 57.6 °F 43.9 °F 60% 29.96 in 10.0 mi South 6.9 mph - N/A   Mostly Cloudy
9:55 AM 60.3 °F 43.7 °F 54% 29.94 in 10.0 mi SSW 8.1 mph - N/A   Scattered Clouds
10:15 AM 62.2 °F 42.6 °F 49% 29.95 in 10.0 mi SSW 8.1 mph - N/A   Mostly Cloudy
10:35 AM 63.5 °F 41.5 °F 45% 29.95 in 10.0 mi SSW 10.4 mph - N/A   Overcast
10:55 AM 63.5 °F 40.8 °F 43% 29.94 in 10.0 mi South 9.2 mph - N/A   Overcast
11:15 AM 65.5 °F 39.7 °F 39% 29.92 in 10.0 mi South 8.1 mph - N/A   Mostly Cloudy
11:35 AM 66.4 °F 39.9 °F 38% 29.91 in 10.0 mi SSW 12.7 mph 17.3 mph N/A   Clear
11:55 AM 63.5 °F 41.4 °F 44% 29.91 in 10.0 mi SW 9.2 mph - N/A Rain Light Rain
12:15 PM 63.5 °F 42.4 °F 46% 29.90 in 10.0 mi SW 5.8 mph - N/A   Mostly Cloudy
12:35 PM 64.0 °F 43.3 °F 47% 29.91 in 10.0 mi SW 6.9 mph - N/A Rain Light Rain
12:55 PM 63.7 °F 48.0 °F 57% 29.90 in 10.0 mi Calm Calm - N/A Rain Light Rain
1:15 PM 64.4 °F 45.5 °F 50% 29.89 in 10.0 mi Calm Calm - N/A   Mostly Cloudy
1:35 PM 63.5 °F 43.5 °F 48% 29.88 in 10.0 mi Calm Calm - N/A   Light Drizzle
1:55 PM 63.5 °F 45.5 °F 52% 29.86 in 10.0 mi Calm Calm - N/A   Light Drizzle
2:15 PM 63.9 °F 46.2 °F 53% 29.85 in 10.0 mi ENE 3.5 mph - N/A   Mostly Cloudy
2:35 PM 64.0 °F 45.7 °F 51% 29.85 in 10.0 mi NNE 6.9 mph - N/A   Scattered Clouds
2:55 PM 64.2 °F 45.5 °F 51% 29.83 in 10.0 mi NNE 9.2 mph - N/A   Clear
3:15 PM 65.1 °F 45.0 °F 48% 29.81 in 10.0 mi NNE 11.5 mph - N/A   Clear
3:35 PM 63.1 °F 44.8 °F 51% 29.78 in 10.0 mi ENE 10.4 mph - N/A   Clear
3:55 PM 63.0 °F 44.8 °F 51% 29.78 in 10.0 mi NE 10.4 mph - N/A   Clear
4:15 PM 61.7 °F 44.8 °F 54% 29.78 in 10.0 mi NE 10.4 mph 16.1 mph N/A   Scattered Clouds
4:35 PM 61.3 °F 44.8 °F 55% 29.81 in 10.0 mi NNE 6.9 mph - N/A   Mostly Cloudy
4:55 PM 58.8 °F 47.1 °F 65% 29.81 in 10.0 mi NNE 10.4 mph - N/A Rain Light Rain
5:15 PM 58.5 °F 48.7 °F 70% 29.81 in 7.0 mi NNE 9.2 mph - 0.01 in Rain Rain
5:35 PM 57.4 °F 48.9 °F 73% 29.81 in 10.0 mi NE 11.5 mph 16.1 mph 0.02 in   Mostly Cloudy
5:55 PM 56.7 °F 49.3 °F 76% 29.79 in 10.0 mi ENE 13.8 mph - 0.02 in   Scattered Clouds
6:15 PM 56.3 °F 48.6 °F 75% 29.79 in 10.0 mi NE 10.4 mph - N/A   Mostly Cloudy
6:35 PM 55.8 °F 48.6 °F 77% 29.79 in 10.0 mi NE 9.2 mph - N/A   Mostly Cloudy
6:55 PM 54.5 °F 48.2 °F 79% 29.79 in 10.0 mi ENE 6.9 mph - N/A   Scattered Clouds
7:15 PM 53.6 °F 48.2 °F 82% 29.81 in 10.0 mi NE 5.8 mph - N/A   Clear
7:35 PM 52.9 °F 48.4 °F 85% 29.81 in 10.0 mi NE 4.6 mph - N/A   Scattered Clouds
7:55 PM 52.7 °F 48.4 °F 85% 29.81 in 10.0 mi NE 6.9 mph - N/A   Mostly Cloudy
8:15 PM 53.1 °F 49.5 °F 88% 29.81 in 10.0 mi NE 8.1 mph - N/A   Scattered Clouds
8:35 PM 52.9 °F 50.0 °F 90% 29.81 in 10.0 mi NE 6.9 mph - N/A   Clear
8:55 PM 53.6 °F 50.0 °F 88% 29.82 in 10.0 mi NNE 5.8 mph - N/A   Clear
9:15 PM 52.2 °F 49.3 °F 90% 29.83 in 10.0 mi NE 4.6 mph - N/A   Clear
9:35 PM 51.8 °F 49.1 °F 90% 29.84 in 10.0 mi NNE 4.6 mph - N/A   Clear
9:55 PM 51.4 °F 49.1 °F 92% 29.83 in 10.0 mi NNE 3.5 mph - N/A   Scattered Clouds
10:15 PM 51.3 °F 48.7 °F 91% 29.84 in 10.0 mi North 3.5 mph - N/A   Mostly Cloudy
10:35 PM 50.9 °F 48.6 °F 92% 29.84 in 10.0 mi North 3.5 mph - N/A   Scattered Clouds
10:55 PM 49.8 °F 47.5 °F 92% 29.83 in 4.0 mi Calm Calm - N/A   Clear
11:15 PM 46.2 °F 43.9 °F 92% 29.83 in 0.2 mi Calm Calm - N/A Fog Fog
11:35 PM 44.1 °F 42.4 °F 94% 29.83 in 0.2 mi Calm Calm - N/A Fog Fog
11:55 PM 44.2 °F 42.8 °F 95% 29.82 in 2.0 mi Calm Calm - N/A   Clear